Regional Weather Roundup
Issued by NWS Newport/Morehead, NC

Current Version | Previous Version | Graphics & Text | Print | Product List | Glossary Off
Versions: 1 2 3 4 5 6 7 8 9 10 11 12 13 14 15 16 17 18 19 20 21 22 23 24 25 26 27 28 29 30 31 32 33 34 35 36 37 38 39 40 41 42 43 44 45 46 47 48 49 50

133
ASUS42 KMHX 241113
RWRMHX
WEATHER ROUNDUP FOR EASTERN NORTH CAROLINA
NATIONAL WEATHER SERVICE NEWPORT/MOREHEAD CITY NC
600 AM EST TUE JAN 24 2017

NOTE: "FAIR" INDICATES FEW OR NO CLOUDS BELOW 12,000 FEET
WITH NO SIGNIFICANT WEATHER AND/OR OBSTRUCTIONS TO VISIBILITY

NCZ015>017-031-032-045>047-102-103-241200-
NORTH COAST

CITY           SKY/WX    TMP DP  RH WIND       PRES   REMARKS
EDENTON        CLOUDY    43  38  84 NW12G23   29.47R
ELIZABETH CITY CLOUDY    41  38  89 NW14      29.46R
KITTY HAWK     NOT AVBL
MANTEO         CLOUDY    42  40  91 NW10G20   29.43R

$$

NCZ045>047-081-094-103-104-241200-
CENTRAL COAST

CITY           SKY/WX    TMP DP  RH WIND       PRES   REMARKS
FRISCO         CLOUDY    45  41  86 NW16G25   29.44R

$$

NCZ095-097-098-100-101-241200-
SOUTHERN COAST

CITY           SKY/WX    TMP DP  RH WIND       PRES   REMARKS
BEAUFORT       CLOUDY    45  40  82 NW14      29.49R
CEDAR ISLAND   NOT AVBL
JACKSONVILLE   PTCLDY    44  40  85 NW12      29.52R
PINEY ISLAND   CLOUDY   N/A N/A N/A NW20G26   29.48R
WILMINGTON     MOCLDY    45  41  86 NW13      29.55R


$$

NCZ011>013-027>030-043-044-078>080-089-090>093-098-241200-
COASTAL PLAIN

CITY           SKY/WX    TMP DP  RH WIND       PRES   REMARKS
AHOSKIE          N/A     38  36  92 N3        29.51R
CLINTON        CLEAR     43  40  87 W6        29.57R
ELIZABETHTOWN  PTCLDY    45  39  81 W6        29.56R
GOLDSBORO      CLOUDY    44  40  87 NW8       29.52R
GREENVILLE     CLOUDY    41  36  81 NW8G18    29.55R
HAVELOCK       CLOUDY    44  38  79 NW13      29.51R
KENANSVILLE    CLOUDY    43  37  81 NW7       29.55R
KINSTON        CLOUDY    43  38  82 NW7       29.53S
NEW BERN       CLOUDY    43  37  79 NW15G24   29.52R
RICHLANDS      MOCLDY    43  38  82 NW7       29.53R
ROCKY MOUNT    CLOUDY    42  37  82 NW9       29.53S
WASHINGTON     CLOUDY    41  36  81 NW9G17      N/A
WHITEVILLE     CLEAR     45  41  86 CALM      29.57R

$$

AMZ130-135-150-152-154-156-158-170-250-252-270-ANZ085-086-088-633-658-670-241200-
MARINE OBSERVATIONS

STATION/POSITION TIME  TEMP    WIND        PRES    WAVE   SWELL
                       AIR SEA DIR/SP/G            HT/PER HT/PER
                 (UTC) (F)     (DEG/KT/KT) (MB)    (FT/S) (FT/S)
CHESAPEAKE LIGHT NOT AVBL
64 E VA BEACH    1050   44 53  310/ 23/ 29  993.0   12/12  10/12
DUCK             1036   42 46  310/ 22/ 28  995.3
2 E DUCK         1100      47                N/A     8/13   5/13
OREGON INLET     1036   43 50  300/ 14/ 22  995.8
13E OREGON INLT  NOT AVBL
HATTERAS CG      1048      57  290/ 25/ 30  996.5
DIAMOND BUOY     1050   49 74  300/ 25/ 31  996.0    9/13   7/13
CAPE LOOKOUT     1100   45     300/ 19/ 23  998.1
BEAUFORT LAB     1048      52  310/ 11/ 15  997.7
30 SE NEW RVR IN NOT AVBL
30 SE NEW RVR IN 1043      67                N/A     7/ 5   2/12
27 SE WRIGHTSVLE 1008   52 68  280/ 19/ 29  997.0
5 SE WRIGHTSVLE  1008   49 56  300/ 17/ 27  999.6
225 S CAPE HAT   1050   67 71  290/ 25/ 29  997.5   15/11  11/11
41 SE CHARLESTON 1050   58 69  290/ 21/ 23 1001.7    7/ 8   5/ 8

$$




USA.gov is the U.S. government's official web portal to all federal, state and local government web resources and services.